Total_Precipitation_Accumulation
0.59 0.51 0.47 0.39 0.36 0.34 0.36 0.44 0.77 1.18 1.58 1.99 2.13 2.26 2.52 2.68 2.55 2.22 1.88 1.68 1.59 1.50 1.40 1.33 1.24 1.16 1.05 0.97 0.87 0.81 0.76 0.72 0.68 0.64 0.61 0.57 0.58 0.58 0.55 0.53 0.46 0.43 0.42 0.42
0.54 0.43 0.49 0.48 0.49 0.51 0.50 0.56 0.84 1.23 1.82 2.11 2.30 2.43 2.45 2.40 2.36 2.26 1.98 1.78 1.70 1.63 1.53 1.48 1.37 1.31 1.22 1.10 1.04 0.94 0.85 0.82 0.75 0.69 0.60 0.57 0.54 0.52 0.50 0.47 0.44 0.42 0.41 0.39
0.77 0.47 0.66 1.00 0.82 0.68 0.72 0.76 0.96 1.30 1.64 1.78 1.95 2.08 2.29 2.38 2.30 2.28 2.08 1.87 1.77 1.77 1.75 1.67 1.61 1.51 1.36 1.21 1.11 0.91 0.78 0.74 0.71 0.65 0.60 0.56 0.48 0.46 0.48 0.51 0.49 0.45 0.42 0.41
0.77 0.89 1.35 1.15 0.72 0.65 0.79 0.85 0.85 1.02 1.13 1.34 1.53 1.72 1.98 2.20 2.29 2.29 2.15 2.03 1.91 1.83 1.79 1.70 1.61 1.48 1.29 1.10 0.92 0.76 0.68 0.65 0.59 0.54 0.55 0.55 0.50 0.49 0.51 0.53 0.51 0.49 0.46 0.47
0.91 1.20 1.35 1.13 0.70 0.62 0.91 1.12 0.86 0.90 0.91 0.93 1.05 1.32 1.78 1.91 1.94 2.02 2.07 2.04 1.93 1.79 1.71 1.59 1.40 1.23 1.12 0.92 0.80 0.73 0.68 0.64 0.55 0.48 0.51 0.54 0.53 0.53 0.57 0.55 0.55 0.53 0.52 0.55
0.97 1.35 1.59 1.38 0.63 0.41 0.74 1.48 1.07 0.95 0.98 0.96 1.13 1.43 1.48 1.41 1.42 1.54 1.69 1.80 1.75 1.58 1.44 1.37 1.19 1.02 0.97 0.85 0.77 0.73 0.65 0.60 0.54 0.50 0.50 0.54 0.58 0.59 0.55 0.55 0.52 0.47 0.50 0.58
1.08 1.36 1.40 0.79 0.45 0.58 1.32 1.64 1.17 0.95 1.01 1.17 1.39 1.35 1.03 0.90 1.05 1.20 1.33 1.49 1.49 1.39 1.31 1.16 0.98 0.95 1.00 0.95 0.80 0.64 0.53 0.52 0.54 0.52 0.51 0.50 0.54 0.57 0.54 0.49 0.50 0.49 0.50 0.52
1.13 1.44 1.44 0.63 0.55 0.94 1.12 0.89 0.79 0.79 0.82 0.85 0.87 0.78 0.71 0.71 0.83 0.95 1.08 1.17 1.25 1.28 1.20 1.08 0.97 0.95 0.95 0.91 0.72 0.60 0.58 0.59 0.56 0.52 0.43 0.42 0.51 0.54 0.50 0.49 0.51 0.52 0.53 0.56
1.05 1.26 0.96 0.53 0.51 0.55 0.56 0.66 0.66 0.70 0.70 0.61 0.61 0.63 0.61 0.65 0.77 0.88 0.93 0.97 1.02 1.06 1.02 1.00 0.93 0.93 0.91 0.79 0.61 0.57 0.62 0.59 0.54 0.47 0.41 0.42 0.47 0.49 0.45 0.44 0.42 0.41 0.43 0.49
0.69 0.70 0.56 0.49 0.46 0.48 0.54 0.54 0.55 0.60 0.61 0.56 0.52 0.52 0.54 0.63 0.74 0.80 0.81 0.80 0.85 0.93 0.93 0.90 0.82 0.80 0.80 0.68 0.61 0.64 0.66 0.58 0.49 0.43 0.37 0.35 0.37 0.35 0.35 0.34 0.34 0.34 0.35 0.37
0.70 0.71 0.62 0.58 0.51 0.51 0.54 0.54 0.52 0.55 0.59 0.53 0.45 0.45 0.49 0.59 0.61 0.66 0.71 0.72 0.76 0.86 0.86 0.75 0.68 0.64 0.59 0.60 0.62 0.67 0.63 0.52 0.45 0.37 0.31 0.31 0.27 0.22 0.20 0.20 0.19 0.21 0.20 0.19
0.70 0.67 0.70 0.65 0.48 0.46 0.55 0.64 0.64 0.60 0.54 0.45 0.42 0.41 0.41 0.49 0.52 0.53 0.58 0.64 0.70 0.70 0.67 0.59 0.54 0.53 0.47 0.49 0.52 0.53 0.48 0.41 0.34 0.29 0.27 0.22 0.21 0.19 0.13 0.11 0.11 0.13 0.13 0.12
0.45 0.43 0.50 0.55 0.52 0.52 0.58 0.59 0.57 0.50 0.42 0.37 0.36 0.36 0.38 0.42 0.45 0.48 0.49 0.50 0.53 0.52 0.50 0.48 0.41 0.41 0.39 0.38 0.39 0.40 0.37 0.32 0.25 0.22 0.21 0.19 0.21 0.28 0.30 0.21 0.13 0.12 0.12 0.12
0.49 0.51 0.66 0.68 0.59 0.47 0.42 0.39 0.40 0.38 0.38 0.36 0.36 0.36 0.35 0.33 0.33 0.38 0.44 0.41 0.37 0.36 0.37 0.36 0.32 0.34 0.35 0.34 0.35 0.35 0.28 0.22 0.22 0.23 0.20 0.19 0.19 0.21 0.26 0.33 0.32 0.23 0.14 0.12
0.57 0.51 0.60 0.59 0.46 0.38 0.33 0.32 0.34 0.36 0.38 0.39 0.38 0.34 0.29 0.28 0.29 0.30 0.31 0.28 0.28 0.29 0.28 0.27 0.29 0.33 0.33 0.29 0.30 0.30 0.26 0.24 0.24 0.23 0.20 0.18 0.16 0.16 0.17 0.23 0.29 0.29 0.23 0.15
0.51 0.42 0.41 0.39 0.35 0.34 0.31 0.31 0.31 0.32 0.31 0.31 0.30 0.28 0.23 0.21 0.22 0.24 0.25 0.22 0.24 0.26 0.25 0.23 0.25 0.27 0.27 0.29 0.30 0.28 0.25 0.22 0.22 0.22 0.19 0.16 0.13 0.14 0.15 0.20 0.24 0.25 0.22 0.17
0.46 0.41 0.37 0.34 0.32 0.30 0.27 0.29 0.28 0.24 0.23 0.22 0.23 0.23 0.19 0.18 0.20 0.24 0.24 0.21 0.22 0.26 0.26 0.26 0.24 0.19 0.20 0.23 0.25 0.24 0.23 0.21 0.19 0.18 0.15 0.12 0.11 0.10 0.14 0.19 0.19 0.19 0.17 0.16
0.39 0.32 0.27 0.26 0.24 0.22 0.22 0.22 0.22 0.19 0.20 0.17 0.16 0.18 0.17 0.19 0.21 0.21 0.19 0.16 0.17 0.22 0.24 0.21 0.16 0.13 0.14 0.16 0.20 0.21 0.20 0.18 0.16 0.14 0.12 0.10 0.11 0.12 0.13 0.14 0.14 0.14 0.13 0.14
0.33 0.24 0.17 0.16 0.16 0.17 0.17 0.17 0.16 0.15 0.14 0.13 0.13 0.14 0.14 0.16 0.18 0.17 0.15 0.15 0.16 0.20 0.19 0.16 0.14 0.14 0.16 0.17 0.18 0.18 0.17 0.14 0.13 0.12 0.12 0.12 0.13 0.15 0.14 0.14 0.15 0.13 0.11 0.12
0.27 0.19 0.13 0.13 0.14 0.13 0.14 0.12 0.12 0.13 0.11 0.10 0.10 0.10 0.11 0.13 0.13 0.12 0.14 0.17 0.15 0.14 0.14 0.14 0.14 0.14 0.16 0.17 0.16 0.15 0.13 0.11 0.11 0.11 0.13 0.16 0.15 0.12 0.13 0.13 0.12 0.11 0.10 0.11
0.18 0.13 0.11 0.11 0.13 0.14 0.13 0.13 0.13 0.13 0.11 0.09 0.09 0.09 0.09 0.10 0.10 0.11 0.16 0.20 0.17 0.12 0.11 0.12 0.13 0.13 0.15 0.16 0.14 0.11 0.11 0.11 0.11 0.10 0.12 0.14 0.13 0.11 0.11 0.11 0.10 0.09 0.09 0.10
0.13 0.11 0.11 0.11 0.11 0.12 0.11 0.12 0.13 0.12 0.11 0.10 0.10 0.09 0.09 0.12 0.11 0.10 0.14 0.21 0.19 0.14 0.11 0.10 0.10 0.12 0.12 0.12 0.10 0.09 0.10 0.11 0.12 0.13 0.14 0.14 0.14 0.12 0.11 0.10 0.09 0.09 0.08 0.08
0.14 0.12 0.12 0.12 0.11 0.09 0.09 0.12 0.13 0.12 0.11 0.10 0.08 0.09 0.11 0.12 0.12 0.11 0.14 0.18 0.15 0.12 0.10 0.07 0.07 0.08 0.09 0.09 0.08 0.06 0.07 0.10 0.11 0.14 0.16 0.14 0.12 0.12 0.11 0.11 0.10 0.10 0.09 0.09
0.16 0.15 0.13 0.12 0.11 0.11 0.12 0.12 0.12 0.12 0.11 0.09 0.08 0.09 0.12 0.13 0.14 0.11 0.13 0.13 0.12 0.12 0.11 0.08 0.06 0.05 0.06 0.06 0.06 0.06 0.08 0.10 0.11 0.12 0.14 0.13 0.11 0.09 0.09 0.10 0.11 0.10 0.10 0.08
0.18 0.17 0.17 0.17 0.17 0.17 0.16 0.13 0.12 0.12 0.12 0.12 0.09 0.10 0.12 0.13 0.14 0.13 0.11 0.09 0.08 0.07 0.06 0.06 0.05 0.04 0.04 0.04 0.04 0.05 0.08 0.11 0.11 0.10 0.12 0.12 0.10 0.08 0.09 0.11 0.11 0.11 0.10 0.08
0.27 0.25 0.24 0.22 0.18 0.17 0.15 0.13 0.13 0.13 0.13 0.14 0.13 0.12 0.15 0.17 0.16 0.15 0.13 0.10 0.08 0.06 0.04 0.04 0.05 0.05 0.04 0.04 0.05 0.06 0.10 0.11 0.07 0.08 0.11 0.12 0.10 0.08 0.09 0.11 0.12 0.10 0.08 0.07
0.39 0.39 0.36 0.28 0.20 0.17 0.16 0.15 0.14 0.14 0.14 0.13 0.12 0.12 0.15 0.16 0.16 0.16 0.14 0.10 0.07 0.05 0.04 0.04 0.05 0.04 0.03 0.03 0.05 0.07 0.11 0.10 0.09 0.10 0.11 0.10 0.10 0.09 0.10 0.11 0.13 0.10 0.07 0.07